CW5102 Weather Reports


Display with metric or nautical units.
time (UTC)temp
F
wind
direction
speed
MPH
gust
MPH
rain 1hr
in
rain 24hr
in
rain mn
in
humidity
%
barometer
mb
20260901045703 72 24 0.0 0.0 0.00 0.00 0.00 81 1012.5
20260901044202 72 24 0.0 0.0 0.00 0.00 0.00 81 1012.4
20260901043703 72 24 0.0 0.0 0.00 0.00 0.00 80 1012.4
20260901043202 72 24 0.0 0.0 0.00 0.00 0.00 80 1012.3
20260901042203 72 24 0.0 0.0 0.00 0.00 0.00 79 1012.3
20260901041702 72 24 0.0 0.0 0.00 0.00 0.00 79 1012.3
20260901040702 72 24 0.0 0.0 0.00 0.00 0.00 77 1012.3
20260901040203 73 24 0.0 0.0 0.00 0.00 0.00 77 1012.3
20260901035702 73 24 0.0 0.0 0.00 0.00 0.00 76 1012.3
20260901035202 73 24 0.0 0.0 0.00 0.00 0.00 76 1012.3
20260901034702 73 24 0.0 0.0 0.00 0.00 0.00 76 1012.4
20260901034203 73 24 0.0 0.0 0.00 0.00 0.00 75 1012.3
20260901033702 73 24 0.0 0.0 0.00 0.00 0.00 75 1012.4
20260901033203 73 24 0.0 0.0 0.00 0.00 0.00 74 1012.4
20260901032202 74 24 0.0 0.0 0.00 0.00 0.00 74 1012.4
20260901031702 74 24 0.0 0.0 0.00 0.00 0.00 73 1012.4
20260901031203 74 24 0.0 0.0 0.00 0.00 0.00 73 1012.3
20260901030703 74 24 0.0 0.0 0.00 0.00 0.00 73 1012.2
20260901030202 74 24 0.0 0.0 0.00 0.00 0.00 72 1012.2
20260901025702 74 24 0.0 0.0 0.00 0.00 0.00 72 1012.3
20260901025202 74 24 0.0 0.0 0.00 0.00 0.00 71 1012.2
20260901024702 74 24 0.0 0.0 0.00 0.00 0.00 71 1012.2
20260901024202 74 24 0.0 0.0 0.00 0.00 0.00 71 1012.2
20260901023702 75 24 0.0 0.0 0.00 0.00 0.00 71 1012.1
20260901023202 75 24 0.0 0.0 0.00 0.00 0.00 70 1012.1
20260901022703 75 24 0.0 0.0 0.00 0.00 0.00 70 1012.1
20260901022203 75 24 0.0 0.0 0.00 0.00 0.00 70 1012.0
20260901021702 75 24 0.0 0.0 0.00 0.00 0.00 69 1011.9
20260901021202 76 24 0.0 0.0 0.00 0.00 0.00 69 1011.9
20260901020703 76 24 0.0 0.0 0.00 0.00 0.00 68 1011.9
20260901015702 76 24 0.0 0.0 0.00 0.00 0.00 67 1011.9
20260901015203 76 24 0.0 0.0 0.00 0.00 0.00 67 1011.7
20260901014203 76 24 0.0 0.0 0.00 0.00 0.00 66 1011.7
20260901013702 76 24 0.0 0.0 0.00 0.00 0.00 66 1011.6
20260901013203 77 24 0.0 0.0 0.00 0.00 0.00 65 1011.6
20260901012703 77 24 0.0 0.0 0.00 0.00 0.00 64 1011.5
20260901012203 77 24 0.0 0.0 0.00 0.00 0.00 64 1011.5
20260901011703 77 24 0.0 0.0 0.00 0.00 0.00 64 1011.4
20260901011202 77 24 0.0 0.0 0.00 0.00 0.00 63 1011.4
20260901010703 78 24 0.0 0.0 0.00 0.00 0.00 62 1011.4
20260901010202 78 24 0.0 0.0 0.00 0.00 0.00 62 1011.4
20260901005702 78 24 0.0 0.0 0.00 0.00 0.00 61 1011.4
20260901005203 78 24 0.0 0.0 0.00 0.00 0.00 60 1011.4
20260901004703 79 24 0.0 0.0 0.00 0.00 0.00 60 1011.4
20260901004203 79 24 0.0 0.0 0.00 0.00 0.00 59 1011.3
20260901003702 79 24 0.0 0.0 0.00 0.00 0.00 58 1011.2
20260901003203 80 24 0.0 0.0 0.00 0.00 0.00 58 1011.2
20260901002702 80 24 0.0 0.0 0.00 0.00 0.00 57 1011.3
20260901002203 80 24 0.0 0.0 0.00 0.00 0.00 56 1011.4
20260901001702 80 24 0.0 0.0 0.00 0.00 0.00 56 1011.4
20260901001203 81 24 0.0 0.0 0.00 0.00 0.00 55 1011.3
20260901000703 81 24 0.0 0.0 0.00 0.00 0.00 55 1011.3
20260901000203 81 24 0.0 0.0 0.00 0.00 0.00 54 1011.4
20260831235704 81 24 0.0 0.0 0.00 0.00 0.00 54 1011.3
20260831235203 82 24 0.0 0.0 0.00 0.00 0.00 54 1011.3
20260831234703 82 24 0.0 0.0 0.00 0.00 0.00 53 1011.2
20260831233203 82 24 0.0 0.0 0.00 0.00 0.00 51 1011.2
20260831232702 83 24 0.0 0.0 0.00 0.00 0.00 50 1011.1
20260831232203 83 24 0.0 0.0 0.00 0.00 0.00 49 1011.2
20260831231202 84 25 0.0 0.0 0.00 0.00 0.00 48 1011.1
20260831230703 84 34 0.0 0.0 0.00 0.00 0.00 47 1011.1
20260831230202 84 6 0.0 0.0 0.00 0.00 0.00 48 1011.1
20260831225703 84 26 0.0 0.0 0.00 0.00 0.00 49 1011.2
20260831224702 84 6 0.0 0.0 0.00 0.00 0.00 47 1011.2
20260831224202 84 36 0.0 0.0 0.00 0.00 0.00 45 1011.1
20260831223703 84 34 0.0 0.0 0.00 0.00 0.00 44 1011.0
20260831223202 84 20 0.0 0.0 0.00 0.00 0.00 42 1011.1
20260831222202 85 13 0.0 0.0 0.00 0.00 0.00 43 1011.0
20260831221703 85 11 0.0 0.0 0.00 0.00 0.00 41 1011.1
20260831221203 85 13 0.0 0.0 0.00 0.00 0.00 41 1010.9
20260831220703 85 37 0.0 0.0 0.00 0.00 0.00 42 1010.8
20260831220203 86 32 0.0 0.0 0.00 0.00 0.00 43 1010.8
20260831215703 86 353 0.0 0.0 0.00 0.00 0.00 41 1010.7
20260831215202 86 0 0.0 0.0 0.00 0.00 0.00 41 1010.8
20260831214703 86 0 0.0 0.0 0.00 0.00 0.00 39 1010.7
20260831214203 87 56 0.0 0.0 0.00 0.00 0.00 41 1010.6
20260831213703 87 43 0.0 0.0 0.00 0.00 0.00 40 1010.7
20260831213203 87 338 0.0 0.0 0.00 0.00 0.00 40 1010.6
20260831212703 87 45 0.0 0.0 0.00 0.00 0.00 40 1010.6
20260831212203 87 255 0.0 0.0 0.00 0.00 0.00 44 1010.7
20260831211703 87 46 0.0 0.0 0.00 0.00 0.00 43 1010.6
20260831211203 87 293 0.0 0.0 0.00 0.00 0.00 44 1010.7
20260831210703 87 225 0.0 0.0 0.00 0.00 0.00 45 1010.6
20260831205703 88 46 0.0 0.0 0.00 0.00 0.00 45 1010.6
20260831205203 87 92 0.0 0.0 0.00 0.00 0.00 47 1010.5
20260831204703 87 253 0.0 0.0 0.00 0.00 0.00 44 1010.5
20260831204203 87 6 0.0 0.0 0.00 0.00 0.00 46 1010.5
20260831203703 87 65 0.0 0.0 0.00 0.00 0.00 48 1010.6
20260831202203 87 79 0.0 0.0 0.00 0.00 0.00 48 1010.5
20260831201703 87 47 0.0 0.0 0.00 0.00 0.00 49 1010.6
20260831200703 87 88 0.0 0.0 0.00 0.00 0.00 49 1010.7
20260831200203 86 262 0.0 0.0 0.00 0.00 0.00 50 1010.6
20260831195703 86 12 0.0 0.0 0.00 0.00 0.00 50 1010.7
20260831195203 86 6 0.0 0.0 0.00 0.00 0.00 52 1010.6
20260831194703 86 78 0.0 0.0 0.00 0.00 0.00 53 1010.5
20260831193703 85 21 0.0 0.0 0.00 0.00 0.00 54 1010.5
20260831193203 85 12 0.0 0.0 0.00 0.00 0.00 53 1010.5
20260831192703 85 248 0.0 0.0 0.00 0.00 0.00 54 1010.5
20260831192203 85 30 0.0 0.0 0.00 0.00 0.00 55 1010.5
20260831191703 85 23 0.0 0.0 0.00 0.00 0.00 56 1010.6
20260831191203 85 49 0.0 0.0 0.00 0.00 0.00 58 1010.5
20260831190703 85 50 0.0 0.0 0.00 0.00 0.00 58 1010.6
20260831190203 84 24 0.0 0.0 0.00 0.00 0.00 60 1010.5
20260831185203 84 13 0.0 0.0 0.00 0.00 0.00 63 1010.5
20260831184703 83 30 0.0 0.0 0.00 0.00 0.00 62 1010.5
20260831184203 83 5 0.0 0.0 0.00 0.00 0.00 62 1010.4
20260831183703 83 68 0.0 0.0 0.00 0.00 0.00 62 1010.4
20260831182203 83 31 0.0 0.0 0.00 0.00 0.00 78 1010.4
20260831181703 82 42 0.0 0.0 0.00 0.00 0.00 80 1010.4
20260831181203 82 341 0.0 0.0 0.00 0.00 0.00 84 1010.4
20260831180703 82 15 0.0 0.0 0.00 0.00 0.00 86 1010.5
20260831180203 82 30 0.0 0.0 0.00 0.00 0.00 90 1010.4
20260831175703 82 4 0.0 0.0 0.00 0.00 0.00 92 1010.4
20260831175203 81 0 0.0 0.0 0.00 0.00 0.00 95 1010.6
20260831174703 81 18 0.0 0.0 0.00 0.00 0.00 100 1010.6
20260831174203 81 28 0.0 0.0 0.00 0.00 0.00 100 1010.6
20260831173203 81 67 0.0 0.0 0.00 0.00 0.00 100 1010.6
20260831172703 81 16 0.0 0.0 0.00 0.00 0.00 100 1010.6
20260831171203 80 46 0.0 0.0 0.00 0.00 0.00 100 1010.7
20260831170703 80 27 0.0 0.0 0.00 0.00 0.00 100 1010.6
20260831170203 80 56 0.0 0.0 0.00 0.00 0.00 100 1010.6
20260831165703 80 57 0.0 0.0 0.00 0.00 0.00 100 1010.6
20260831165204 80 24 0.0 0.0 0.00 0.00 0.00 100 1010.6
20260831164703 80 37 0.0 0.0 0.00 0.00 0.00 100 1010.5
20260831163703 80 347 0.0 0.0 0.00 0.00 0.00 100 1010.6
20260831162703 80 36 0.0 0.0 0.00 0.00 0.00 100 1010.4
20260831162203 80 17 0.0 0.0 0.00 0.00 0.00 100 1010.4
20260831161703 79 0 0.0 0.0 0.00 0.00 0.00 100 1010.4
20260831161204 79 30 0.0 0.0 0.00 0.00 0.00 100 1010.3
20260831160703 79 29 0.0 0.0 0.00 0.00 0.00 100 1010.3
20260831160204 79 0 0.0 0.0 0.00 0.00 0.00 100 1010.3
20260831155704 79 10 0.0 0.0 0.00 0.00 0.00 100 1010.3
20260831155203 78 43 0.0 0.0 0.00 0.00 0.00 100 1010.3
20260831154704 78 27 0.0 0.0 0.00 0.00 0.00 100 1010.4
20260831154203 78 18 0.0 0.0 0.00 0.00 0.00 100 1010.4
20260831153703 78 12 0.0 0.0 0.00 0.00 0.00 100 1010.3
20260831153203 78 12 0.0 0.0 0.00 0.00 0.00 100 1010.2
20260831151703 78 38 0.0 0.0 0.00 0.00 0.00 100 1009.9
20260831151204 77 32 0.0 0.0 0.00 0.00 0.00 100 1009.8
20260831150703 77 25 0.0 0.0 0.00 0.00 0.00 100 1009.7
20260831150203 77 39 0.0 0.0 0.00 0.00 0.00 100 1009.6
20260831145703 76 0 0.0 0.0 0.00 0.00 0.00 100 1009.5
20260831145203 76 0 0.0 0.0 0.00 0.00 0.00 100 1009.4
20260831144703 76 21 0.0 0.0 0.00 0.00 0.00 100 1009.5
20260831144203 76 13 0.0 0.0 0.00 0.00 0.00 100 1009.3
20260831143703 75 354 0.0 0.0 0.00 0.00 0.00 100 1009.4
20260831143203 75 341 0.0 0.0 0.00 0.00 0.00 100 1009.3
20260831142703 75 15 0.0 0.0 0.00 0.00 0.00 100 1009.2
20260831141704 74 42 0.0 0.0 0.00 0.00 0.00 100 1009.3
20260831141203 74 248 0.0 0.0 0.00 0.00 0.00 100 1009.3
20260831140703 74 7 0.0 0.0 0.00 0.00 0.00 100 1009.2
20260831140203 74 251 0.0 0.0 0.00 0.00 0.00 100 1009.0
20260831135703 73 280 0.0 0.0 0.00 0.00 0.00 100 1008.8
20260831135204 73 248 0.0 0.0 0.00 0.00 0.00 100 1008.9
20260831134703 73 343 0.0 0.0 0.00 0.00 0.00 100 1008.7
20260831134203 73 289 0.0 0.0 0.00 0.00 0.00 100 1008.8
20260831133704 73 36 0.0 0.0 0.00 0.00 0.00 100 1008.8
20260831133203 72 36 0.0 0.0 0.00 0.00 0.00 100 1008.7
20260831132703 72 267 0.0 0.0 0.00 0.00 0.00 100 1008.7
20260831132203 72 267 0.0 0.0 0.00 0.00 0.00 100 1008.6
20260831131704 72 291 0.0 0.0 0.00 0.00 0.00 100 1008.6
20260831131204 71 292 0.0 0.0 0.00 0.00 0.00 100 1008.5
20260831130703 71 292 0.0 0.0 0.00 0.00 0.00 100 1008.4
20260831130203 71 292 0.0 0.0 0.00 0.00 0.00 100 1008.4
20260831125704 71 274 0.0 0.0 0.00 0.00 0.00 100 1008.4
20260831125203 71 274 0.0 0.0 0.00 0.00 0.00 100 1008.3
20260831124703 71 274 0.0 0.0 0.00 0.00 0.00 100 1008.3
20260831124203 71 274 0.0 0.0 0.00 0.00 0.00 100 1008.2
20260831123703 71 274 0.0 0.0 0.00 0.00 0.00 100 1008.1
20260831123204 71 273 0.0 0.0 0.00 0.00 0.00 100 1008.1
20260831122704 71 245 0.0 0.0 0.00 0.00 0.00 100 1008.0
20260831122204 71 202 0.0 0.0 0.00 0.00 0.00 100 1007.8
20260831121704 71 304 0.0 0.0 0.00 0.00 0.00 100 1007.8
20260831121203 71 304 0.0 0.0 0.00 0.00 0.00 100 1007.8
20260831120203 71 304 0.0 0.0 0.00 0.00 0.00 100 1007.7
20260831115204 71 304 0.0 0.0 0.00 0.00 0.00 100 1007.6
20260831114203 71 304 0.0 0.0 0.00 0.00 0.00 100 1007.5
20260831113204 71 271 0.0 0.0 0.00 0.00 0.00 100 1007.5
20260831112703 71 285 0.0 0.0 0.00 0.00 0.00 100 1007.5
20260831111703 71 285 0.0 0.0 0.00 0.00 0.00 100 1007.2
20260831110703 71 285 0.0 0.0 0.00 0.00 0.00 100 1007.0
20260831110204 71 285 0.0 0.0 0.00 0.00 0.00 100 1007.0
20260831105704 71 285 0.0 0.0 0.00 0.00 0.00 100 1007.1
20260831105203 71 285 0.0 0.0 0.00 0.00 0.00 100 1006.9
20260831104204 71 286 0.0 0.0 0.00 0.00 0.00 100 1006.9
20260831103704 71 218 0.0 0.0 0.00 0.00 0.00 100 1006.8
20260831103204 72 222 0.0 0.0 0.00 0.00 0.00 100 1006.9
20260831102204 72 287 0.0 0.0 0.00 0.00 0.00 100 1007.0
20260831101704 72 287 0.0 0.0 0.00 0.00 0.00 100 1007.0
20260831101203 72 289 0.0 0.0 0.00 0.00 0.00 100 1007.0
20260831100703 72 235 0.0 0.0 0.00 0.00 0.00 100 1007.0
20260831100203 72 225 0.0 0.0 0.00 0.00 0.00 100 1006.9
20260831095703 72 255 0.0 0.0 0.00 0.00 0.00 100 1006.8
20260831095204 72 198 0.0 0.0 0.00 0.00 0.00 100 1006.7
20260831094703 72 277 0.0 0.0 0.00 0.00 0.00 100 1006.8
20260831094204 72 275 0.0 0.0 0.00 0.00 0.00 100 1006.8
20260831093704 72 295 0.0 0.0 0.00 0.00 0.00 100 1006.8
20260831093204 72 221 0.0 0.0 0.00 0.00 0.00 100 1006.8
20260831092704 72 186 0.0 0.0 0.00 0.00 0.00 100 1006.7
20260831092204 72 297 0.0 0.0 0.00 0.00 0.00 100 1006.7
20260831091704 72 216 0.0 0.0 0.00 0.00 0.00 100 1006.8
20260831091203 72 204 0.0 0.0 0.00 0.00 0.00 100 1006.7
20260831090203 72 199 0.0 0.0 0.00 0.00 0.00 100 1006.8
20260831085703 72 253 0.0 0.0 0.00 0.00 0.00 100 1006.8
20260831085203 72 258 0.0 0.0 0.00 0.00 0.00 100 1006.9
20260831084703 72 227 0.0 0.0 0.00 0.00 0.00 100 1006.7
20260831084204 72 292 0.0 0.0 0.00 0.00 0.00 100 1006.8
20260831083704 72 198 0.0 0.0 0.00 0.00 0.00 100 1006.6
20260831083204 72 308 0.0 0.0 0.00 0.00 0.00 100 1006.7
20260831082703 72 271 0.0 0.0 0.00 0.00 0.00 100 1006.7
20260831082203 72 220 0.0 0.0 0.00 0.00 0.00 100 1006.7
20260831081703 72 249 0.0 0.0 0.00 0.00 0.00 100 1006.6
20260831081204 72 285 0.0 0.0 0.00 0.00 0.00 100 1006.6
20260831080704 72 203 0.0 0.0 0.00 0.00 0.00 100 1006.5
20260831080204 72 244 0.0 0.0 0.00 0.00 0.00 100 1006.5
20260831075204 72 233 0.0 0.0 0.00 0.00 0.00 100 1006.4
20260831074704 72 229 0.0 0.0 0.00 0.00 0.00 100 1006.5
20260831074204 73 247 0.0 0.0 0.00 0.00 0.00 100 1006.5
20260831073704 73 251 0.0 0.0 0.00 0.00 0.00 100 1006.5
20260831073202 73 189 0.0 0.0 0.00 0.00 0.00 100 1006.5
20260831072702 73 204 0.0 0.0 0.00 0.00 0.00 100 1006.6
20260831071702 73 224 0.0 0.0 0.00 0.00 0.00 100 1006.6
20260831071202 73 217 0.0 0.0 0.00 0.00 0.00 100 1006.7
20260831070703 73 220 0.0 0.0 0.00 0.00 0.00 100 1006.7
20260831070202 73 231 0.0 0.0 0.00 0.00 0.00 100 1006.7
20260831065702 73 219 0.0 0.0 0.00 0.00 0.00 100 1006.8
20260831065202 73 227 0.0 0.0 0.00 0.00 0.00 100 1006.8
20260831064702 73 217 0.0 0.0 0.00 0.00 0.00 100 1006.8
20260831064203 73 241 0.0 0.0 0.00 0.00 0.00 100 1006.9
20260831063202 73 237 0.0 0.0 0.00 0.00 0.00 100 1006.9
20260831062203 73 227 0.0 0.0 0.00 0.00 0.00 100 1007.1
20260831061703 73 202 0.0 0.0 0.00 0.00 0.00 100 1007.1
20260831061203 73 200 0.0 0.0 0.00 0.00 0.00 100 1007.2
20260831060702 73 209 0.0 0.0 0.00 0.00 0.00 100 1007.2
20260831060202 73 294 0.0 0.0 0.00 0.00 0.00 100 1007.2
20260831055702 73 207 0.0 0.0 0.00 0.00 0.00 100 1007.3
20260831055202 73 244 0.0 0.0 0.00 0.00 0.00 100 1007.4
20260831054702 73 200 0.0 0.0 0.00 0.00 0.00 100 1007.3
20260831054203 74 233 0.0 0.0 0.00 0.00 0.00 100 1007.4
20260831053702 74 205 0.0 0.0 0.00 0.00 0.00 100 1007.4
20260831053203 74 256 0.0 0.0 0.00 0.00 0.00 100 1007.5
20260831052702 74 251 0.0 0.0 0.00 0.00 0.00 100 1007.5
20260831052202 74 231 0.0 0.0 0.00 0.00 0.00 100 1007.5
20260831051702 74 231 0.0 0.0 0.00 0.00 0.00 100 1007.6
20260831051202 74 317 0.0 0.0 0.00 0.00 0.00 100 1007.8
20260831050702 74 249 0.0 0.0 0.00 0.00 0.00 100 1008.0